SAS617 EKCH-LSGG

Flight info

Callsign SAS617
Flight time 1h 47m
Altitude 38000
Route SALLO M736 BAKDO DCT AMOSA DCT DKB DCT TEDGO N869 NATOR DCT LUTIX N869 BENOT
Aircraft A320/M-SDE3FGHIRWY/LB1

Departure

Time 2026-04-26 15:23
Airport Copenhagen Kastrup Airport (EKCH)

Arrival

Time 2026-04-26 17:11
Airport Geneva International Airport (LSGG)
Time Latitude Longitude Altitude Speed Heading
2026-04-26 14:49 55.62654 12.65451 17 ft 0 kts 89°
2026-04-26 15:11 55.62654 12.65434 17 ft 4 kts 89°
2026-04-26 15:11 55.62653 12.65394 17 ft 3 kts 88°
2026-04-26 15:12 55.62648 12.65351 19 ft 4 kts 53°
2026-04-26 15:12 55.62628 12.65324 18 ft 4 kts 12°
2026-04-26 15:12 55.62603 12.65322 18 ft 4 kts 359°
2026-04-26 15:12 55.62596 12.65322 17 ft 0 kts 359°
2026-04-26 15:16 55.62600 12.65322 17 ft 2 kts 359°
2026-04-26 15:16 55.62624 12.65318 19 ft 5 kts 347°
2026-04-26 15:17 55.62649 12.65263 18 ft 7 kts 281°
2026-04-26 15:17 55.62633 12.65206 17 ft 9 kts 217°
2026-04-26 15:17 55.62538 12.65198 17 ft 12 kts 178°
2026-04-26 15:17 55.62444 12.65202 17 ft 15 kts 178°
2026-04-26 15:18 55.62330 12.65205 17 ft 16 kts 182°
2026-04-26 15:18 55.62251 12.65200 17 ft 12 kts 180°
2026-04-26 15:18 55.62167 12.65134 17 ft 15 kts 213°
2026-04-26 15:18 55.62094 12.65050 19 ft 13 kts 214°
2026-04-26 15:19 55.62010 12.64952 18 ft 17 kts 213°
2026-04-26 15:19 55.61902 12.64829 17 ft 20 kts 212°
2026-04-26 15:19 55.61778 12.64687 19 ft 22 kts 213°
2026-04-26 15:19 55.61638 12.64527 20 ft 25 kts 212°
2026-04-26 15:20 55.61486 12.64350 17 ft 27 kts 213°
2026-04-26 15:20 55.61326 12.64166 18 ft 27 kts 213°
2026-04-26 15:20 55.61164 12.63980 18 ft 29 kts 213°
2026-04-26 15:20 55.60990 12.63780 20 ft 29 kts 212°
2026-04-26 15:21 55.60816 12.63581 17 ft 31 kts 213°
2026-04-26 15:21 55.60655 12.63393 17 ft 26 kts 215°
2026-04-26 15:21 55.60524 12.63216 18 ft 17 kts 198°
2026-04-26 15:21 55.60430 12.63333 18 ft 18 kts 130°
2026-04-26 15:22 55.60453 12.63525 17 ft 18 kts 40°
2026-04-26 15:22 55.60469 12.63551 17 ft 0 kts 41°
2026-04-26 15:22 55.60473 12.63556 19 ft 5 kts 41°
2026-04-26 15:22 55.60676 12.63869 19 ft 77 kts 41°
2026-04-26 15:23 55.61250 12.64756 19 ft 138 kts 41°
2026-04-26 15:23 55.62068 12.66026 272 ft 160 kts 40°
2026-04-26 15:23 55.62904 12.67344 845 ft 163 kts 38°
2026-04-26 15:23 55.63788 12.68708 1391 ft 177 kts 37°
2026-04-26 15:24 55.64774 12.70222 1732 ft 199 kts 37°
2026-04-26 15:24 55.65893 12.71916 2080 ft 224 kts 37°
2026-04-26 15:24 55.67149 12.73784 2565 ft 247 kts 37°
2026-04-26 15:24 55.68460 12.75818 3335 ft 258 kts 44°
2026-04-26 15:25 55.69426 12.78564 4238 ft 269 kts 68°
2026-04-26 15:25 55.69701 12.80730 4820 ft 276 kts 84°
2026-04-26 15:25 55.69186 12.85221 6017 ft 285 kts 119°
2026-04-26 15:25 55.67907 12.87891 6903 ft 288 kts 146°
2026-04-26 15:26 55.66129 12.89451 7707 ft 290 kts 162°
2026-04-26 15:26 55.64182 12.90502 8502 ft 294 kts 172°
2026-04-26 15:26 55.62129 12.90749 9257 ft 297 kts 187°
2026-04-26 15:26 55.60084 12.90101 10025 ft 300 kts 202°
2026-04-26 15:27 55.58181 12.88665 10610 ft 309 kts 210°
2026-04-26 15:27 55.56000 12.87649 10861 ft 341 kts 187°
2026-04-26 15:27 55.53558 12.87631 11269 ft 357 kts 180°
2026-04-26 15:27 55.51051 12.87915 11927 ft 363 kts 178°
2026-04-26 15:28 55.48516 12.88291 12626 ft 367 kts 178°
2026-04-26 15:28 55.45951 12.88653 13345 ft 372 kts 179°
2026-04-26 15:28 55.43389 12.88949 14039 ft 376 kts 180°
2026-04-26 15:28 55.40760 12.89183 14674 ft 380 kts 181°
2026-04-26 15:29 55.38103 12.89365 15294 ft 383 kts 182°
2026-04-26 15:29 55.35423 12.89515 15904 ft 387 kts 182°
2026-04-26 15:29 55.30004 12.89808 17108 ft 394 kts 183°
2026-04-26 15:30 55.24457 12.90147 18344 ft 402 kts 183°
2026-04-26 15:30 55.21645 12.90328 18921 ft 406 kts 183°
2026-04-26 15:30 55.18800 12.90513 19496 ft 409 kts 183°
2026-04-26 15:31 55.15981 12.90696 20079 ft 412 kts 182°
2026-04-26 15:31 55.10212 12.91054 21213 ft 416 kts 183°
2026-04-26 15:31 55.07303 12.91237 21744 ft 419 kts 183°
2026-04-26 15:32 55.03421 12.91475 22490 ft 423 kts 183°
2026-04-26 15:32 54.98491 12.91778 23444 ft 428 kts 183°
2026-04-26 15:32 54.95500 12.91956 24001 ft 429 kts 183°
2026-04-26 15:33 54.92504 12.92141 24419 ft 432 kts 183°
2026-04-26 15:33 54.89483 12.92327 24856 ft 435 kts 183°
2026-04-26 15:33 54.86456 12.92517 25297 ft 436 kts 183°
2026-04-26 15:33 54.83411 12.92717 25673 ft 438 kts 183°
2026-04-26 15:34 54.80391 12.92911 26104 ft 440 kts 183°
2026-04-26 15:34 54.77311 12.93097 26531 ft 441 kts 183°
2026-04-26 15:34 54.74227 12.93281 26925 ft 443 kts 183°
2026-04-26 15:34 54.71140 12.93472 27312 ft 445 kts 183°
2026-04-26 15:35 54.68031 12.93668 27698 ft 448 kts 183°
2026-04-26 15:35 54.64907 12.93862 28087 ft 450 kts 183°
2026-04-26 15:35 54.61811 12.94049 28474 ft 452 kts 184°
2026-04-26 15:35 54.58612 12.94241 28862 ft 454 kts 184°
2026-04-26 15:36 54.55481 12.94432 29210 ft 456 kts 184°
2026-04-26 15:36 54.52300 12.94620 29610 ft 458 kts 184°
2026-04-26 15:36 54.49103 12.94809 29987 ft 460 kts 184°
2026-04-26 15:36 54.45867 12.95003 30359 ft 463 kts 184°
2026-04-26 15:37 54.42674 12.95195 30637 ft 466 kts 184°
2026-04-26 15:37 54.39407 12.95393 30937 ft 468 kts 184°
2026-04-26 15:37 54.36154 12.95594 31308 ft 468 kts 184°
2026-04-26 15:37 54.32896 12.95795 31748 ft 467 kts 184°
2026-04-26 15:38 54.29642 12.95991 32174 ft 466 kts 184°
2026-04-26 15:38 54.26443 12.96185 32628 ft 464 kts 184°
2026-04-26 15:38 54.23192 12.96383 33076 ft 462 kts 184°
2026-04-26 15:38 54.20010 12.96574 33502 ft 462 kts 184°
2026-04-26 15:39 54.16797 12.96763 33939 ft 461 kts 184°
2026-04-26 15:39 54.13614 12.96715 34372 ft 454 kts 191°
2026-04-26 15:39 54.11541 12.96299 34612 ft 450 kts 196°
2026-04-26 15:39 54.09519 12.95574 34841 ft 445 kts 201°
2026-04-26 15:40 54.05578 12.93540 35274 ft 443 kts 204°
2026-04-26 15:40 54.02628 12.91990 35581 ft 442 kts 203°
2026-04-26 15:40 53.99679 12.90454 35908 ft 442 kts 203°
2026-04-26 15:40 53.96735 12.88926 36227 ft 442 kts 203°
2026-04-26 15:41 53.93796 12.87407 36512 ft 442 kts 203°
2026-04-26 15:41 53.90878 12.85907 36801 ft 443 kts 203°
2026-04-26 15:41 53.87927 12.84390 37088 ft 443 kts 203°
2026-04-26 15:41 53.84963 12.82871 37364 ft 443 kts 203°
2026-04-26 15:42 53.82003 12.81358 37644 ft 443 kts 202°
2026-04-26 15:42 53.79094 12.79869 37897 ft 443 kts 202°
2026-04-26 15:42 53.76148 12.78365 38197 ft 442 kts 202°
2026-04-26 15:42 53.73192 12.76853 38302 ft 444 kts 202°
2026-04-26 15:43 53.67251 12.73805 38313 ft 447 kts 202°
2026-04-26 15:44 53.58288 12.69251 38310 ft 448 kts 202°
2026-04-26 15:44 53.49376 12.64739 38305 ft 447 kts 202°
2026-04-26 15:45 53.40441 12.60240 38318 ft 447 kts 202°
2026-04-26 15:46 53.31488 12.55727 38297 ft 447 kts 202°
2026-04-26 15:46 53.26523 12.53247 38314 ft 447 kts 202°
2026-04-26 15:47 53.16605 12.48310 38331 ft 447 kts 202°
2026-04-26 15:48 53.10639 12.45348 38330 ft 447 kts 202°
2026-04-26 15:48 53.04677 12.42400 38319 ft 446 kts 201°
2026-04-26 15:49 52.98752 12.39479 38328 ft 446 kts 202°
2026-04-26 15:49 52.92804 12.36546 38332 ft 446 kts 202°
2026-04-26 15:50 52.86856 12.33619 38332 ft 446 kts 201°
2026-04-26 15:50 52.80908 12.30708 38337 ft 445 kts 201°
2026-04-26 15:51 52.74959 12.27809 38332 ft 446 kts 201°
2026-04-26 15:51 52.69041 12.24932 38333 ft 445 kts 201°
2026-04-26 15:52 52.63087 12.22047 38337 ft 446 kts 201°
2026-04-26 15:52 52.57161 12.19179 38322 ft 445 kts 201°
2026-04-26 15:53 52.51213 12.16306 38332 ft 445 kts 201°
2026-04-26 15:53 52.45289 12.13452 38334 ft 445 kts 201°
2026-04-26 15:54 52.39316 12.10597 38331 ft 445 kts 201°
2026-04-26 15:54 52.33407 12.07772 38329 ft 445 kts 201°
2026-04-26 15:55 52.27462 12.04933 38329 ft 445 kts 201°
2026-04-26 15:55 52.21506 12.02108 38333 ft 444 kts 201°
2026-04-26 15:56 52.15603 11.99302 38330 ft 444 kts 201°
2026-04-26 15:56 52.09657 11.96495 38330 ft 444 kts 201°
2026-04-26 15:57 52.03726 11.93681 38325 ft 444 kts 201°
2026-04-26 15:57 51.97824 11.90898 38327 ft 444 kts 200°
2026-04-26 15:58 51.91863 11.88108 38317 ft 444 kts 200°
2026-04-26 15:58 51.85959 11.85348 38324 ft 444 kts 200°
2026-04-26 15:59 51.80017 11.82582 38333 ft 443 kts 200°
2026-04-26 15:59 51.74120 11.79833 38334 ft 443 kts 200°
2026-04-26 16:00 51.68182 11.77075 38313 ft 443 kts 200°
2026-04-26 16:00 51.62270 11.74337 38326 ft 443 kts 200°
2026-04-26 16:01 51.56436 11.71644 38336 ft 443 kts 200°
2026-04-26 16:01 51.50536 11.68935 38334 ft 443 kts 200°
2026-04-26 16:02 51.44788 11.66285 38325 ft 443 kts 200°
2026-04-26 16:02 51.38924 11.63597 38325 ft 442 kts 200°
2026-04-26 16:03 51.32994 11.60894 38326 ft 442 kts 200°
2026-04-26 16:03 51.27084 11.58193 38327 ft 442 kts 200°
2026-04-26 16:04 51.21158 11.55502 38315 ft 443 kts 199°
2026-04-26 16:04 51.15281 11.52858 38321 ft 443 kts 199°
2026-04-26 16:05 51.09320 11.50177 38322 ft 443 kts 199°
2026-04-26 16:05 51.03385 11.47497 38321 ft 443 kts 200°
2026-04-26 16:06 50.97474 11.44833 38310 ft 443 kts 199°
2026-04-26 16:06 50.91523 11.42155 38313 ft 443 kts 199°
2026-04-26 16:07 50.85577 11.39500 38313 ft 443 kts 199°
2026-04-26 16:07 50.79644 11.36864 38312 ft 443 kts 199°
2026-04-26 16:08 50.73737 11.34237 38302 ft 443 kts 199°
2026-04-26 16:08 50.67798 11.31601 38307 ft 443 kts 199°
2026-04-26 16:09 50.61875 11.28979 38303 ft 443 kts 199°
2026-04-26 16:09 50.55929 11.26362 38302 ft 443 kts 199°
2026-04-26 16:10 50.49977 11.23736 38300 ft 443 kts 199°
2026-04-26 16:10 50.44066 11.21141 38308 ft 444 kts 199°
2026-04-26 16:11 50.38123 11.18539 38294 ft 443 kts 199°
2026-04-26 16:11 50.32182 11.15955 38281 ft 443 kts 199°
2026-04-26 16:12 50.26226 11.13363 38291 ft 444 kts 199°
2026-04-26 16:12 50.17314 11.09478 38285 ft 443 kts 199°
2026-04-26 16:13 50.11403 11.06925 38264 ft 443 kts 199°
2026-04-26 16:13 50.05444 11.04365 38268 ft 443 kts 199°
2026-04-26 16:14 49.99489 11.01802 38278 ft 443 kts 199°
2026-04-26 16:15 49.90582 10.97979 38278 ft 443 kts 199°
2026-04-26 16:15 49.84671 10.95451 38265 ft 443 kts 199°
2026-04-26 16:16 49.75760 10.91646 38265 ft 443 kts 199°
2026-04-26 16:16 49.69813 10.89127 38269 ft 443 kts 199°
2026-04-26 16:17 49.63985 10.86649 38262 ft 443 kts 199°
2026-04-26 16:17 49.57956 10.84097 38267 ft 443 kts 199°
2026-04-26 16:18 49.49603 10.78536 38263 ft 432 kts 221°
2026-04-26 16:19 49.43225 10.68930 38252 ft 429 kts 229°
2026-04-26 16:20 49.36933 10.59091 38257 ft 430 kts 229°
2026-04-26 16:20 49.30650 10.49270 38265 ft 431 kts 229°
2026-04-26 16:21 49.26444 10.42709 38252 ft 431 kts 229°
2026-04-26 16:21 49.22237 10.36176 38267 ft 432 kts 228°
2026-04-26 16:22 49.18019 10.29638 38271 ft 432 kts 228°
2026-04-26 16:22 49.13867 10.23066 38264 ft 430 kts 234°
2026-04-26 16:23 49.10123 10.15935 38262 ft 430 kts 234°
2026-04-26 16:23 49.06385 10.08857 38244 ft 430 kts 234°
2026-04-26 16:24 49.02603 10.01732 38255 ft 431 kts 234°
2026-04-26 16:24 48.98853 9.94676 38257 ft 431 kts 233°
2026-04-26 16:25 48.95075 9.87579 38258 ft 431 kts 233°
2026-04-26 16:25 48.91290 9.80478 38256 ft 431 kts 233°
2026-04-26 16:26 48.88155 9.74611 38239 ft 431 kts 233°
2026-04-26 16:26 48.83730 9.66351 38242 ft 432 kts 233°
2026-04-26 16:27 48.79937 9.59309 38233 ft 432 kts 233°
2026-04-26 16:27 48.76122 9.52248 38229 ft 432 kts 233°
2026-04-26 16:28 48.72368 9.45300 38230 ft 432 kts 233°
2026-04-26 16:28 48.68538 9.38231 38210 ft 432 kts 233°
2026-04-26 16:29 48.64705 9.31185 38237 ft 432 kts 233°
2026-04-26 16:29 48.60929 9.24194 38241 ft 431 kts 234°
2026-04-26 16:30 48.57414 9.16896 38243 ft 429 kts 238°
2026-04-26 16:30 48.54023 9.09449 38229 ft 430 kts 238°
2026-04-26 16:31 48.50596 9.02050 38224 ft 430 kts 237°
2026-04-26 16:31 48.47112 8.94712 38216 ft 430 kts 237°
2026-04-26 16:32 48.44212 8.88641 38215 ft 430 kts 237°
2026-04-26 16:32 48.40710 8.81315 38225 ft 431 kts 237°
2026-04-26 16:33 48.36715 8.72980 38216 ft 430 kts 237°
2026-04-26 16:33 48.33786 8.66874 38218 ft 430 kts 237°
2026-04-26 16:34 48.30284 8.59591 38196 ft 430 kts 237°
2026-04-26 16:34 48.26778 8.52313 38203 ft 431 kts 237°
2026-04-26 16:35 48.23269 8.45051 38203 ft 431 kts 237°
2026-04-26 16:35 48.19736 8.37771 38209 ft 432 kts 237°
2026-04-26 16:36 48.15721 8.31068 38208 ft 437 kts 221°
2026-04-26 16:36 48.10643 8.25991 38202 ft 440 kts 216°
2026-04-26 16:37 48.05519 8.21058 38200 ft 440 kts 216°
2026-04-26 16:37 48.00359 8.16085 38197 ft 440 kts 216°
2026-04-26 16:38 47.95209 8.11138 38195 ft 440 kts 216°
2026-04-26 16:38 47.90053 8.06207 38188 ft 440 kts 216°
2026-04-26 16:39 47.85094 8.01481 38190 ft 440 kts 216°
2026-04-26 16:39 47.79928 7.96553 38194 ft 440 kts 216°
2026-04-26 16:40 47.74814 7.91690 38186 ft 440 kts 216°
2026-04-26 16:40 47.69718 7.86859 38184 ft 440 kts 215°
2026-04-26 16:41 47.64590 7.82005 38186 ft 439 kts 215°
2026-04-26 16:41 47.59450 7.77150 38185 ft 439 kts 215°
2026-04-26 16:42 47.54325 7.72322 38186 ft 439 kts 215°
2026-04-26 16:42 47.49204 7.67510 38179 ft 438 kts 215°
2026-04-26 16:43 47.44089 7.62726 38181 ft 438 kts 215°
2026-04-26 16:43 47.38939 7.57919 37502 ft 442 kts 215°
2026-04-26 16:44 47.36387 7.55535 36457 ft 450 kts 215°
2026-04-26 16:44 47.33737 7.53059 35518 ft 453 kts 215°
2026-04-26 16:44 47.31067 7.50567 34770 ft 452 kts 215°
2026-04-26 16:44 47.28402 7.48086 34077 ft 452 kts 215°
2026-04-26 16:45 47.25759 7.45634 33553 ft 445 kts 215°
2026-04-26 16:45 47.23275 7.43339 33057 ft 441 kts 215°
2026-04-26 16:45 47.20682 7.40943 32532 ft 437 kts 215°
2026-04-26 16:45 47.18168 7.38542 32015 ft 432 kts 219°
2026-04-26 16:46 47.15879 7.35658 31501 ft 424 kts 229°
2026-04-26 16:46 47.14096 7.32635 31034 ft 417 kts 235°
2026-04-26 16:46 47.12301 7.29291 30535 ft 414 kts 234°
2026-04-26 16:46 47.10513 7.25986 29996 ft 412 kts 234°
2026-04-26 16:47 47.08754 7.22755 29506 ft 408 kts 234°
2026-04-26 16:47 47.06988 7.19522 29017 ft 404 kts 234°
2026-04-26 16:47 47.05239 7.16315 28552 ft 401 kts 234°
2026-04-26 16:47 47.03502 7.13129 28085 ft 398 kts 234°
2026-04-26 16:48 47.01769 7.09957 27593 ft 396 kts 234°
2026-04-26 16:48 47.00106 7.06921 27151 ft 393 kts 234°
2026-04-26 16:48 46.98393 7.03797 26704 ft 391 kts 234°
2026-04-26 16:48 46.96691 7.00693 26266 ft 389 kts 234°
2026-04-26 16:49 46.95017 6.97641 25859 ft 387 kts 234°
2026-04-26 16:49 46.93328 6.94570 25433 ft 386 kts 232°
2026-04-26 16:49 46.91450 6.91818 24991 ft 388 kts 221°
2026-04-26 16:49 46.89219 6.89590 24570 ft 390 kts 210°
2026-04-26 16:50 46.86749 6.87963 24140 ft 390 kts 204°
2026-04-26 16:50 46.84257 6.86478 23688 ft 390 kts 204°
2026-04-26 16:50 46.81749 6.84984 23190 ft 388 kts 204°
2026-04-26 16:50 46.79286 6.83512 22739 ft 386 kts 204°
2026-04-26 16:51 46.76807 6.82023 22289 ft 384 kts 204°
2026-04-26 16:51 46.74336 6.80539 21788 ft 382 kts 204°
2026-04-26 16:51 46.71881 6.79062 21323 ft 379 kts 204°
2026-04-26 16:51 46.69446 6.77600 20834 ft 377 kts 204°
2026-04-26 16:52 46.67024 6.76150 20362 ft 375 kts 204°
2026-04-26 16:52 46.65447 6.75145 20039 ft 372 kts 209°
2026-04-26 16:52 46.62444 6.72779 19409 ft 368 kts 211°
2026-04-26 16:52 46.60201 6.71006 18931 ft 366 kts 211°
2026-04-26 16:53 46.57970 6.69244 18458 ft 364 kts 211°
2026-04-26 16:53 46.55751 6.67496 17943 ft 361 kts 211°
2026-04-26 16:53 46.53550 6.65761 17385 ft 360 kts 211°
2026-04-26 16:53 46.51372 6.64048 16876 ft 358 kts 211°
2026-04-26 16:54 46.49160 6.62313 16431 ft 353 kts 211°
2026-04-26 16:54 46.47038 6.60652 15977 ft 349 kts 210°
2026-04-26 16:54 46.44905 6.58986 15511 ft 347 kts 210°
2026-04-26 16:54 46.42792 6.57332 15157 ft 341 kts 210°
2026-04-26 16:55 46.40747 6.55721 15028 ft 328 kts 213°
2026-04-26 16:55 46.38958 6.53795 14888 ft 314 kts 225°
2026-04-26 16:55 46.37444 6.51559 14635 ft 308 kts 227°
2026-04-26 16:55 46.35967 6.49353 14402 ft 307 kts 227°
2026-04-26 16:56 46.33000 6.44948 13934 ft 303 kts 227°
2026-04-26 16:56 46.31528 6.42774 13665 ft 302 kts 227°
2026-04-26 16:56 46.30058 6.40610 13417 ft 301 kts 226°
2026-04-26 16:57 46.28590 6.38452 13194 ft 300 kts 227°
2026-04-26 16:57 46.27125 6.36296 12961 ft 299 kts 227°
2026-04-26 16:57 46.24222 6.32027 12481 ft 297 kts 226°
2026-04-26 16:58 46.22795 6.29931 12257 ft 296 kts 226°
2026-04-26 16:58 46.21818 6.28497 12105 ft 296 kts 226°
2026-04-26 16:58 46.18491 6.23602 11552 ft 292 kts 226°
2026-04-26 16:59 46.17074 6.21500 11320 ft 292 kts 226°
2026-04-26 16:59 46.14262 6.17309 10862 ft 291 kts 226°
2026-04-26 17:00 46.11477 6.13175 10411 ft 286 kts 226°
2026-04-26 17:00 46.08715 6.09093 9949 ft 285 kts 225°
2026-04-26 17:00 46.07298 6.07034 9699 ft 285 kts 225°
2026-04-26 17:01 46.05916 6.05043 9472 ft 285 kts 225°
2026-04-26 17:01 46.04515 6.03026 9244 ft 284 kts 225°
2026-04-26 17:01 46.03146 6.01055 9016 ft 284 kts 225°
2026-04-26 17:01 46.01748 5.99047 8774 ft 284 kts 225°
2026-04-26 17:02 46.00346 5.97038 8551 ft 283 kts 225°
2026-04-26 17:02 45.98955 5.95045 8357 ft 278 kts 225°
2026-04-26 17:02 45.97636 5.93144 8233 ft 269 kts 227°
2026-04-26 17:02 45.96738 5.90954 8106 ft 258 kts 258°
2026-04-26 17:03 45.96795 5.88453 7862 ft 252 kts 290°
2026-04-26 17:03 45.97766 5.86427 7526 ft 249 kts 316°
2026-04-26 17:03 45.98992 5.84697 7334 ft 243 kts 316°
2026-04-26 17:03 46.00166 5.83010 7203 ft 234 kts 316°
2026-04-26 17:04 46.01349 5.81474 7091 ft 222 kts 332°
2026-04-26 17:04 46.02781 5.81049 7001 ft 207 kts 11°
2026-04-26 17:04 46.04029 5.81968 6696 ft 206 kts 45°
2026-04-26 17:04 46.05048 5.83459 6345 ft 210 kts 46°
2026-04-26 17:05 46.06076 5.84983 6023 ft 213 kts 45°
2026-04-26 17:05 46.07093 5.86493 5736 ft 212 kts 45°
2026-04-26 17:05 46.08132 5.88009 5445 ft 211 kts 44°
2026-04-26 17:05 46.09148 5.89490 5154 ft 202 kts 43°
2026-04-26 17:06 46.10101 5.90878 4938 ft 186 kts 43°
2026-04-26 17:06 46.10974 5.92150 4653 ft 176 kts 43°
2026-04-26 17:06 46.11826 5.93398 4299 ft 168 kts 42°
2026-04-26 17:06 46.12598 5.94520 4166 ft 148 kts 42°
2026-04-26 17:07 46.13304 5.95540 4026 ft 140 kts 41°
2026-04-26 17:07 46.13986 5.96518 3790 ft 136 kts 42°
2026-04-26 17:07 46.14653 5.97484 3613 ft 138 kts 43°
2026-04-26 17:07 46.15313 5.98479 3586 ft 137 kts 46°
2026-04-26 17:08 46.15980 5.99466 3369 ft 134 kts 44°
2026-04-26 17:08 46.16642 6.00415 3157 ft 135 kts 44°
2026-04-26 17:08 46.17298 6.01376 2965 ft 134 kts 44°
2026-04-26 17:08 46.17950 6.02318 2775 ft 134 kts 45°
2026-04-26 17:09 46.18601 6.03292 2630 ft 135 kts 45°
2026-04-26 17:09 46.19030 6.03930 2506 ft 133 kts 43°
2026-04-26 17:09 46.19908 6.05208 2226 ft 134 kts 44°
2026-04-26 17:09 46.20560 6.06152 2067 ft 136 kts 44°
2026-04-26 17:10 46.21230 6.07117 1925 ft 135 kts 44°
2026-04-26 17:10 46.21903 6.08080 1746 ft 135 kts 45°
2026-04-26 17:10 46.22560 6.09065 1513 ft 134 kts 45°
2026-04-26 17:10 46.23195 6.10000 1412 ft 123 kts 45°
2026-04-26 17:11 46.23690 6.10724 1382 ft 77 kts 45°
2026-04-26 17:11 46.23945 6.11098 1376 ft 31 kts 45°
2026-04-26 17:11 46.24093 6.11317 1375 ft 29 kts 45°
2026-04-26 17:11 46.24221 6.11504 1374 ft 25 kts 47°
2026-04-26 17:12 46.24325 6.11942 1364 ft 17 kts 139°
2026-04-26 17:12 46.24269 6.11902 1362 ft 7 kts 243°
2026-04-26 17:13 46.24188 6.11789 1363 ft 9 kts 225°
2026-04-26 17:13 46.24144 6.11724 1366 ft 10 kts 226°
2026-04-26 17:13 46.23942 6.11428 1374 ft 24 kts 225°
2026-04-26 17:14 46.23821 6.11250 1378 ft 28 kts 226°
2026-04-26 17:14 46.23535 6.10830 1389 ft 25 kts 224°
2026-04-26 17:14 46.23435 6.10706 1392 ft 14 kts 183°
2026-04-26 17:15 46.23251 6.10775 1400 ft 16 kts 206°
2026-04-26 17:15 46.23187 6.10688 1397 ft 6 kts 225°
2026-04-26 17:15 46.23165 6.10656 1393 ft 5 kts 225°
2026-04-26 17:16 46.23147 6.10631 1401 ft 4 kts 220°
2026-04-26 17:16 46.23126 6.10633 1400 ft 3 kts 153°
2026-04-26 17:16 46.23110 6.10655 1393 ft 4 kts 136°
2026-04-26 17:16 46.23104 6.10663 1393 ft 1 kts 135°
2026-04-26 17:17 46.23101 6.10668 1393 ft 0 kts 136°